Location: Arboyeti
(42.1122°N, 44.6017°E)
Time: 03:58:19
(UTC+00:00)

Cosmos 2219 Rocket - Pass Details

Date: 19 April 2021
Orbit: 826 x 848 km, 71.0° (Epoch: 09 May)

Event Time Altitude Azimuth Distance (km) Brightness Sun altitude
Rises 17:11:19 0° 333° (NNW) 3,419 6.4 -15.0°
Reaches altitude 10° 17:13:47 10° 331° (NNW) 2,480 5.6 -15.4°
Maximum altitude 17:19:26 70° 249° (WSW) 902 2.4 -16.3°
Enters shadow 17:24:00 16° 169° (SSE) 2,068 3.8 -17.0°
